This is the latest recevied weather packets stored in our database for station/object W4KBW. If no packets are shown the sender has not sent any weather packets the latest 10 day(s).
| Time | Temp. | Humidity | Pressure | Rain* | Wind** | Luminosity | Snow |
|---|---|---|---|---|---|---|---|
| 1777713561 | 22.78° C | 100% | 1008.9 hPa | 0 mm | - | - | - |
| 1777712631 | 22.78° C | 100% | 1009.1 hPa | 0 mm | - | - | - |
| 1777711731 | 22.78° C | 100% | 1009.1 hPa | 0 mm | - | - | - |
| 1777710801 | 22.78° C | 100% | 1009.4 hPa | 0 mm | - | - | - |
| 1777709871 | 23.33° C | 100% | 1009 hPa | 0 mm | - | - | - |
| 1777708941 | 23.33° C | 100% | 1008.9 hPa | 0 mm | - | - | - |
| 1777708041 | 23.33° C | 100% | 1008.8 hPa | 0 mm | - | - | - |
| 1777707111 | 23.33° C | 100% | 1009 hPa | 0 mm | - | - | - |
| 1777706181 | 23.33° C | 100% | 1009 hPa | 0 mm | - | - | - |
| 1777705282 | 23.33° C | 100% | 1009 hPa | 0 mm | - | - | - |
| 1777705251 | 23.33° C | 100% | 1009 hPa | 0 mm | - | - | - |
| 1777704760 | 23.89° C | 100% | 1009.2 hPa | 0 mm | - | - | - |
| 1777704351 | 23.89° C | 100% | 1009.2 hPa | 0 mm | - | - | - |
| 1777703421 | 23.89° C | 100% | 1009.4 hPa | 0 mm | - | - | - |
| 1777702751 | 23.89° C | 100% | 1009.5 hPa | 0 mm | - | - | - |
| 1777702521 | 23.89° C | 100% | 1009.5 hPa | 0 mm | - | - | - |
| 1777701733 | 24.44° C | 100% | 1009.5 hPa | 0 mm | - | - | - |
| 1777701621 | 24.44° C | 100% | 1009.5 hPa | 0 mm | - | - | - |
| 1777700691 | 24.44° C | 100% | 1009.5 hPa | 0 mm | - | - | - |
| 1777699908 | 24.44° C | 100% | 1009.7 hPa | 0 mm | - | - | - |
| 1777699791 | 24.44° C | 100% | 1009.7 hPa | 0 mm | - | - | - |
| 1777698861 | 24.44° C | 100% | 1009.7 hPa | 0 mm | - | - | - |
| 1777697931 | 25° C | 100% | 1009.7 hPa | 0 mm | - | - | - |
| 1777690850 | 27.22° C | 100% | 1009.6 hPa | 0 mm | - | - | - |
| 1777688403 | 27.78° C | 100% | 1009.5 hPa | 0 mm | - | - | - |
* Rain latest hour (hover to see other rain measurements)
** Current wind speed in m/s (hover to see current wind gust speed)